Probability
0 0 0 0 0 0 0 0 0 0 0 0 0 0 0 0 0 0 0 0 0 1 3 4 4 3 2 2 1 2 3 3 2 1 1 1 1 1 0 0 0 0 0
0 0 0 0 0 0 0 0 0 0 0 0 0 0 0 0 0 0 0 0 0 1 2 2 3 2 2 2 1 1 1 1 1 0 0 0 1 1 0 0 0 0 0
0 0 0 0 0 0 0 0 0 0 0 0 0 0 0 0 0 0 0 0 0 0 1 1 1 1 1 1 0 0 0 0 0 0 0 0 0 0 0 0 0 0 0
0 0 0 0 0 0 0 0 0 0 0 0 0 0 0 0 0 0 0 0 0 0 0 0 0 0 0 0 0 0 0 0 0 0 0 0 0 0 0 0 0 0 0
0 0 0 0 0 0 0 0 0 0 0 0 0 0 0 0 0 0 0 0 0 0 0 0 0 0 0 0 0 0 0 0 0 0 0 0 0 0 0 0 0 0 0
0 0 0 0 0 0 0 0 0 0 0 0 0 0 0 0 0 0 0 0 0 0 0 0 0 0 0 0 0 0 0 0 0 0 0 0 0 0 0 0 1 1 0
0 0 0 0 0 0 0 0 0 0 0 0 0 0 0 0 0 0 0 0 0 0 0 0 0 0 0 0 0 0 0 0 0 0 0 0 0 0 0 0 1 2 1
0 0 0 0 0 0 0 0 0 0 0 0 0 0 0 0 0 0 0 0 0 0 0 0 0 0 0 0 0 0 0 0 0 0 0 0 0 0 0 0 1 2 2
0 0 0 0 0 0 0 0 0 0 0 0 0 0 0 0 0 0 0 0 0 0 0 0 0 0 0 0 0 0 0 0 0 0 0 0 0 0 0 0 1 2 3
0 0 0 0 0 0 0 0 0 0 0 0 0 0 0 0 0 0 0 0 0 0 0 0 0 0 0 0 0 0 0 0 0 0 0 0 0 1 1 1 2 3 3
0 0 0 0 0 0 0 0 0 0 0 0 0 0 0 0 0 0 0 0 0 0 0 0 0 0 0 0 0 0 0 0 0 0 0 0 0 1 2 2 2 3 3
0 0 0 0 0 0 0 0 0 0 0 0 0 0 0 0 0 0 0 0 0 0 0 0 0 0 0 0 0 0 0 0 0 0 0 0 0 0 1 2 2 3 3
0 0 0 0 0 0 0 0 0 0 0 0 0 0 0 0 0 0 0 0 0 0 0 0 0 0 0 0 0 0 0 0 0 0 0 0 0 0 0 1 2 2 2
0 0 0 0 0 0 0 0 0 0 0 0 0 0 0 0 0 0 0 0 0 0 0 0 0 0 0 0 0 0 0 0 0 0 0 0 0 0 0 1 1 1 1
0 0 0 0 0 0 0 0 0 0 0 0 0 0 0 0 0 0 0 0 0 0 0 0 0 0 0 0 0 0 0 0 0 0 0 0 0 0 0 0 0 0 0
0 0 0 0 0 0 0 0 0 0 0 0 0 0 0 0 0 0 0 0 0 0 0 0 0 0 0 0 0 0 0 0 0 0 0 0 0 0 0 0 0 0 0
0 0 0 0 0 0 0 0 0 0 0 0 0 0 0 0 0 0 0 0 0 0 0 0 0 0 0 0 0 0 0 0 0 0 0 0 0 0 0 0 0 0 0
0 0 0 0 0 0 0 0 0 0 0 0 0 0 0 0 0 0 0 0 0 0 0 0 0 0 0 0 0 0 0 0 0 0 0 0 0 0 0 0 0 0 0
0 0 0 0 0 0 0 0 0 0 0 0 0 0 0 0 0 0 0 0 0 0 0 0 0 0 0 0 0 0 0 0 0 0 0 0 0 0 0 0 0 0 0
0 0 0 0 0 0 0 0 0 0 0 0 0 0 0 0 0 0 0 0 0 0 0 0 0 0 0 0 0 0 0 0 0 0 0 0 0 0 0 0 0 0 0
0 0 0 0 0 0 0 0 0 0 0 0 0 0 0 0 0 0 0 0 0 0 0 0 0 0 0 0 0 0 0 0 0 0 0 0 0 0 0 0 0 0 0
0 0 0 0 0 0 0 0 0 0 0 0 0 0 0 0 0 0 0 0 0 0 0 0 0 0 0 0 0 0 0 0 0 0 0 0 0 0 0 0 0 0 0
0 0 0 0 0 0 0 0 0 0 0 0 0 0 0 0 0 0 0 0 0 0 0 0 0 0 0 0 0 0 0 0 0 0 0 0 0 0 0 0 0 0 0
0 0 0 0 0 0 0 0 0 0 0 0 0 0 0 0 0 0 0 0 0 0 0 0 0 0 0 0 0 0 0 0 0 0 0 0 0 0 0 0 0 0 0
0 0 0 0 0 0 0 0 0 0 0 0 0 0 0 0 0 0 0 0 0 0 0 0 0 0 0 0 0 0 0 0 0 0 0 0 0 0 0 0 0 0 0
0 0 0 0 0 0 0 0 0 0 0 0 0 0 0 0 0 0 0 0 0 0 0 0 0 0 0 0 0 0 0 0 0 0 0 0 0 0 0 0 0 0 0
Wind_Speed
2 2 2 2 2 2 2 2 2 2 3 3 3 3 3 3 3 3 3 7 8 8 7 7 7 8 7 7 7 7 7 7 7 7 7 6 6 6 6 6 6 6 6
2 2 2 2 2 2 2 2 2 2 2 2 3 3 3 2 3 3 3 4 7 7 7 7 7 6 7 7 7 7 7 7 6 6 6 6 5 5 4 4 4 5 5
2 2 2 2 2 2 2 2 3 3 3 3 3 3 2 2 3 3 3 2 2 5 6 7 7 7 7 7 7 7 7 7 6 6 6 6 5 5 4 4 3 3 3
3 2 2 2 2 2 2 2 2 2 2 2 2 2 2 2 2 3 3 2 2 2 4 6 6 6 6 6 6 7 7 7 7 6 5 5 4 4 4 3 2 2 2
2 2 2 2 2 2 2 2 2 2 2 2 1 1 1 1 1 2 2 2 2 2 2 4 6 6 6 5 5 5 5 6 6 6 6 5 4 4 3 3 3 3 2
2 2 2 2 2 2 2 2 2 2 2 1 1 1 1 1 1 1 1 2 2 2 2 2 2 3 6 6 5 4 4 4 5 5 5 5 5 4 3 3 2 2 2
2 2 2 2 1 2 2 2 2 2 1 1 2 1 1 0 1 1 1 1 1 2 2 2 1 1 2 5 5 5 5 4 4 4 4 4 4 5 4 2 2 1 1
2 2 3 2 2 1 2 2 2 1 1 1 2 1 1 1 1 0 0 1 1 1 1 1 1 1 1 1 3 5 5 4 4 4 4 4 4 4 4 4 3 2 1
2 2 3 3 2 2 2 2 2 2 2 1 1 2 2 1 1 1 1 1 1 1 1 1 1 1 1 1 1 2 4 4 4 4 4 4 4 4 4 4 4 4 3
2 2 3 3 3 2 2 2 1 1 3 2 1 0 1 2 2 1 2 1 1 1 1 0 1 0 0 0 1 2 3 4 4 5 5 5 5 5 5 5 5 5 4
2 2 3 3 3 3 3 3 2 2 2 3 2 1 0 0 1 2 2 2 1 1 1 1 1 1 1 0 0 2 3 4 4 5 6 6 5 5 5 5 6 6 5
2 2 3 3 3 3 3 3 3 3 2 2 2 2 2 2 2 2 2 2 2 2 2 1 2 2 1 1 1 3 4 5 5 6 7 6 6 6 6 6 7 7 6
2 3 3 3 3 3 4 4 4 4 3 3 3 3 3 3 2 2 2 2 2 2 2 2 2 2 2 1 1 3 4 5 6 6 7 7 6 6 7 7 7 7 7
3 3 3 3 3 4 4 4 4 4 4 4 4 4 3 3 2 2 2 2 2 2 2 3 2 2 2 2 3 3 3 5 6 7 7 7 7 6 6 7 6 6 6
3 4 4 4 4 4 4 4 4 5 4 5 5 4 3 3 2 2 2 3 4 3 4 3 2 2 2 2 4 3 3 5 6 7 7 7 6 6 6 6 6 6 6
3 3 4 4 4 4 5 5 4 4 5 5 4 5 4 3 3 3 3 3 4 4 4 3 2 2 2 3 5 3 4 6 7 7 7 7 7 7 7 7 7 7 7
4 4 4 5 5 5 5 5 6 6 6 6 6 6 6 5 4 3 3 3 3 3 5 4 2 2 3 3 3 3 3 3 4 7 8 8 8 8 8 8 8 8 8
4 4 4 5 6 6 5 6 7 7 7 7 7 7 7 5 6 5 4 5 4 4 4 6 3 3 4 4 3 3 3 4 3 7 8 8 8 9 9 8 9 9 8
4 4 4 5 6 6 6 6 7 7 7 8 8 8 8 7 7 6 6 6 5 5 4 5 5 3 3 3 3 4 4 3 4 5 7 8 8 9 9 9 9 8 8
4 4 5 5 5 6 6 6 7 7 7 7 8 8 8 9 9 8 7 7 6 5 5 5 5 4 3 3 3 3 4 3 3 3 5 6 7 9 9 8 8 8 8
5 4 5 5 5 5 6 6 6 7 7 7 7 8 8 10 11 10 8 7 7 6 5 5 6 5 4 4 5 4 4 3 3 3 3 3 3 3 4 6 7 8 8
4 4 5 5 5 5 8 10 8 6 6 7 7 7 8 10 12 15 15 14 11 9 7 7 6 7 7 5 4 4 4 3 4 3 3 4 3 3 3 3 6 7 8
4 4 5 5 5 6 9 11 11 7 6 6 7 7 7 8 11 8 12 15 14 15 13 9 8 9 7 6 6 5 5 5 5 3 3 4 3 4 3 4 7 8 8
4 4 5 5 5 6 9 10 11 7 6 7 7 7 7 7 8 8 8 8 8 9 11 9 9 8 7 7 8 7 6 4 3 3 3 4 3 4 4 3 7 8 8
5 5 5 5 5 6 9 10 10 5 6 7 7 7 8 8 11 13 9 8 8 8 10 13 13 11 11 12 9 5 5 5 5 4 3 3 3 3 3 3 5 8 8
5 5 6 5 5 6 9 10 10 5 6 6 6 7 10 10 13 14 9 8 9 8 6 6 7 8 8 9 12 9 7 6 4 4 4 3 2 1 3 3 3 3 4
Wind_Direction
96 91 88 80 66 60 55 55 53 50 53 55 57 60 56 62 72 66 64 62 60 62 63 64 66 66 65 67 67 69 67 64 62 62 61 66 69 70 68 61 57 59 59
86 92 88 81 69 63 51 52 57 57 57 55 53 57 59 58 70 70 67 58 54 55 58 59 61 62 64 66 66 65 64 63 61 61 60 61 63 64 68 65 54 53 57
74 81 90 83 74 67 60 55 50 52 56 53 48 46 51 53 65 72 69 63 49 47 54 59 61 62 60 61 63 62 60 57 56 56 55 56 53 52 56 61 55 49 49
79 76 84 85 81 83 75 74 66 62 56 49 41 38 46 54 61 72 74 70 58 46 47 53 56 55 56 56 57 56 54 50 47 46 45 51 50 46 44 50 52 49 45
91 94 93 88 82 86 80 80 71 80 75 48 35 44 50 69 73 72 79 80 75 69 59 49 47 45 46 46 50 51 50 47 42 39 36 38 42 39 37 43 48 44 40
106 102 109 90 82 91 86 83 92 81 97 86 46 36 27 111 95 86 87 85 81 77 70 60 50 34 37 33 35 34 40 41 39 34 27 24 28 24 26 32 29 23 24
137 125 117 108 100 115 121 111 103 102 99 89 70 40 9 65 118 97 86 93 87 84 77 72 63 49 32 29 25 21 23 26 27 23 17 14 10 9 4 356 8 13 11
151 143 137 143 125 112 121 119 110 109 139 112 106 104 33 348 335 267 129 144 127 85 78 78 73 61 46 46 21 14 4 2 2 359 357 356 346 352 345 342 331 323 305
171 165 159 158 162 151 157 160 156 132 157 224 142 135 139 206 305 284 222 187 162 134 116 91 83 66 43 49 26 351 348 344 339 334 330 328 328 324 331 326 323 322 300
194 172 170 169 172 169 172 192 176 175 156 177 242 244 167 152 155 285 289 240 207 188 187 168 117 115 142 115 354 342 326 324 319 316 314 306 307 312 313 316 311 311 315
215 191 184 179 184 184 183 192 195 199 183 180 186 201 235 266 182 177 238 264 276 248 221 205 194 212 193 196 208 281 290 294 297 301 301 301 301 306 308 308 307 303 302
230 211 205 197 196 193 192 195 198 205 209 206 203 194 182 188 193 187 208 235 255 267 260 232 215 200 201 195 237 287 278 279 282 287 289 290 294 297 299 299 300 300 298
227 225 217 212 208 203 198 196 199 209 210 214 216 212 208 212 202 199 205 235 253 271 252 245 229 197 202 186 217 268 275 281 280 280 281 282 287 293 293 292 290 295 295
220 223 225 218 222 214 209 199 205 208 208 213 229 222 217 218 205 200 198 198 252 264 245 242 250 210 203 198 226 259 259 269 280 279 282 281 282 285 287 287 290 293 295
226 223 231 223 220 218 209 200 209 211 210 213 219 224 222 223 219 212 202 192 199 233 245 231 222 221 219 213 228 232 247 261 274 276 278 276 273 275 276 279 283 286 287
229 223 234 234 224 223 217 209 213 214 212 215 213 215 221 220 218 217 212 215 211 216 241 230 228 230 232 244 241 238 243 266 268 271 273 272 269 268 270 271 272 275 276
229 224 227 234 226 223 220 216 216 214 217 218 219 218 221 216 216 219 218 219 223 220 244 257 248 233 220 238 245 239 243 242 251 260 264 268 268 268 269 270 269 267 268
237 231 227 236 231 226 221 219 221 221 219 219 219 218 220 218 219 219 218 221 224 225 233 253 255 236 233 231 231 235 254 256 250 260 264 266 267 269 270 271 267 263 261
248 243 231 237 235 228 226 227 223 222 223 223 219 219 218 212 220 220 218 221 223 232 228 240 253 244 244 240 242 249 248 251 258 259 261 266 269 272 272 272 263 259 256
248 243 241 244 239 234 234 233 229 226 227 228 226 224 220 215 218 217 221 220 219 224 225 231 242 243 244 238 226 238 246 236 249 262 260 267 272 275 276 275 266 262 256
261 249 244 250 244 237 237 233 231 231 230 231 230 228 227 226 226 225 226 217 214 221 222 229 236 236 235 227 228 228 242 243 252 245 252 258 265 267 269 272 268 261 257
271 263 254 254 248 249 250 248 245 239 237 237 237 234 233 233 234 237 239 236 228 223 221 226 234 232 231 231 230 230 236 241 252 231 232 251 243 252 258 259 267 270 263
273 263 260 260 255 255 256 255 253 248 241 241 240 236 238 236 236 231 237 240 239 237 232 228 232 232 229 222 222 230 231 234 241 228 222 248 236 248 249 254 260 268 273
273 268 267 262 259 263 264 261 258 253 246 243 242 236 234 234 232 232 230 232 233 234 235 234 234 234 232 219 218 227 230 244 260 241 213 240 238 249 257 245 253 260 271
274 269 269 261 258 263 265 265 261 249 248 248 246 241 237 234 237 236 232 232 238 243 246 242 240 238 236 234 227 220 220 228 247 244 219 223 240 258 255 249 249 255 266
277 276 273 264 257 259 265 267 262 252 250 251 248 241 241 243 241 236 227 225 233 235 228 235 238 240 236 232 232 223 217 223 235 238 215 209 224 224 262 255 239 246 256